TimeCST,TemperatureF,Dew PointF,Humidity,Sea Level PressureIn,VisibilityMPH,Wind Direction,Wind SpeedMPH,Gust SpeedMPH,PrecipitationIn,Events,Conditions,WindDirDegrees,DateUTC
12:15 AM,19.4,12.2,74,30.24,10.0,North,11.5,-,N/A,,Overcast,10,2013-12-06 06:15:00
12:35 AM,19.4,10.4,68,30.24,10.0,North,13.8,18.4,N/A,,Overcast,10,2013-12-06 06:35:00
12:55 AM,19.4,10.4,68,30.24,7.0,North,11.5,-,N/A,,Overcast,10,2013-12-06 06:55:00
1:15 AM,19.4,10.4,68,30.23,9.0,North,10.4,-,N/A,,Overcast,10,2013-12-06 07:15:00
1:35 AM,19.4,10.4,68,30.22,5.0,NNE,11.5,19.6,N/A,,Overcast,20,2013-12-06 07:35:00
1:55 AM,19.4,10.4,68,30.22,5.0,NNE,12.7,-,N/A,,Overcast,20,2013-12-06 07:55:00
2:15 AM,19.4,10.4,68,30.22,5.0,NNE,12.7,16.1,N/A,,Overcast,20,2013-12-06 08:15:00
2:35 AM,19.4,10.4,68,30.22,10.0,NNE,11.5,16.1,N/A,,Overcast,20,2013-12-06 08:35:00
2:55 AM,19.4,10.4,68,30.24,9.0,NNE,10.4,17.3,N/A,,Overcast,20,2013-12-06 08:55:00
3:15 AM,19.4,10.4,68,30.24,2.5,North,11.5,-,N/A,,Overcast,10,2013-12-06 09:15:00
3:35 AM,19.4,10.4,68,30.22,2.0,North,11.5,18.4,N/A,,Overcast,10,2013-12-06 09:35:00
3:55 AM,19.4,10.4,68,30.23,3.0,North,9.2,-,N/A,,Overcast,10,2013-12-06 09:55:00
4:15 AM,19.4,10.4,68,30.23,2.5,North,11.5,-,N/A,,Overcast,10,2013-12-06 10:15:00
4:35 AM,19.4,10.4,68,30.22,4.0,North,12.7,-,N/A,,Overcast,10,2013-12-06 10:35:00
4:55 AM,19.4,10.4,68,30.22,4.0,NNE,12.7,16.1,N/A,,Overcast,20,2013-12-06 10:55:00
5:15 AM,17.6,8.6,68,30.24,2.5,NNE,10.4,18.4,N/A,,Overcast,20,2013-12-06 11:15:00
5:35 AM,17.6,10.4,73,30.26,3.0,North,11.5,-,N/A,,Overcast,360,2013-12-06 11:35:00
5:55 AM,17.6,10.4,73,30.25,2.0,NNE,9.2,-,N/A,,Overcast,20,2013-12-06 11:55:00
6:15 AM,17.6,10.4,73,30.26,1.8,NNE,8.1,-,N/A,,Overcast,20,2013-12-06 12:15:00
6:35 AM,17.6,10.4,73,30.27,2.0,North,11.5,-,N/A,,Overcast,360,2013-12-06 12:35:00
6:55 AM,17.6,10.4,73,30.27,4.0,North,11.5,-,N/A,,Overcast,10,2013-12-06 12:55:00
7:15 AM,17.6,10.4,73,30.27,2.0,North,8.1,-,N/A,,Overcast,10,2013-12-06 13:15:00
7:35 AM,17.6,8.6,68,30.27,0.8,NNE,9.2,-,N/A,,Overcast,20,2013-12-06 13:35:00
7:55 AM,17.6,10.4,73,30.30,1.0,North,8.1,-,N/A,,Overcast,360,2013-12-06 13:55:00
8:15 AM,17.6,10.4,73,30.29,1.0,North,10.4,-,N/A,,Overcast,10,2013-12-06 14:15:00
8:35 AM,17.6,8.6,68,30.29,0.8,North,11.5,-,N/A,,Overcast,10,2013-12-06 14:35:00
8:55 AM,17.6,8.6,68,30.31,0.5,NNE,9.2,-,N/A,,Overcast,20,2013-12-06 14:55:00
9:15 AM,17.6,8.6,68,30.30,1.0,NNE,11.5,16.1,N/A,,Overcast,20,2013-12-06 15:15:00
9:35 AM,17.6,8.6,68,30.33,0.5,NNE,6.9,-,N/A,,Overcast,20,2013-12-06 15:35:00
9:55 AM,17.6,10.4,73,30.35,0.8,NNE,6.9,-,N/A,,Overcast,20,2013-12-06 15:55:00
10:15 AM,17.6,8.6,68,30.35,0.8,NNE,9.2,-,N/A,,Overcast,20,2013-12-06 16:15:00
10:35 AM,17.6,8.6,68,30.35,1.0,North,10.4,-,N/A,,Overcast,10,2013-12-06 16:35:00
10:55 AM,17.6,8.6,68,30.34,1.0,North,12.7,-,N/A,,Overcast,360,2013-12-06 16:55:00
11:15 AM,17.6,10.4,73,30.36,1.0,North,9.2,-,N/A,,Overcast,10,2013-12-06 17:15:00
11:35 AM,17.6,8.6,68,30.38,1.2,North,12.7,-,N/A,,Overcast,350,2013-12-06 17:35:00
11:55 AM,17.6,10.4,73,30.35,1.0,North,13.8,-,N/A,,Overcast,350,2013-12-06 17:55:00
12:15 PM,17.6,8.6,68,30.34,2.0,North,15.0,-,N/A,,Overcast,10,2013-12-06 18:15:00
12:35 PM,19.4,8.6,63,30.34,9.0,North,12.7,-,N/A,,Overcast,10,2013-12-06 18:35:00
12:55 PM,19.4,8.6,63,30.34,7.0,North,15.0,-,N/A,,Overcast,360,2013-12-06 18:55:00
1:15 PM,19.4,8.6,63,30.34,6.0,North,10.4,-,N/A,,Overcast,10,2013-12-06 19:15:00
1:35 PM,19.4,8.6,63,30.35,8.0,North,9.2,-,N/A,,Overcast,360,2013-12-06 19:35:00
1:55 PM,19.4,8.6,63,30.34,7.0,North,12.7,-,N/A,,Overcast,360,2013-12-06 19:55:00
2:15 PM,19.4,10.4,68,30.35,10.0,North,11.5,-,N/A,,Overcast,360,2013-12-06 20:15:00
2:35 PM,19.4,8.6,63,30.35,10.0,North,12.7,16.1,N/A,,Overcast,360,2013-12-06 20:35:00
2:55 PM,19.4,8.6,63,30.36,10.0,North,11.5,-,N/A,,Overcast,350,2013-12-06 20:55:00
3:15 PM,19.4,10.4,68,30.36,10.0,North,15.0,-,N/A,,Overcast,350,2013-12-06 21:15:00
3:35 PM,19.4,8.6,63,30.37,10.0,North,12.7,-,N/A,,Overcast,350,2013-12-06 21:35:00
3:55 PM,19.4,8.6,63,30.38,10.0,North,12.7,-,N/A,,Overcast,350,2013-12-06 21:55:00
4:15 PM,19.4,8.6,63,30.39,10.0,North,12.7,-,N/A,,Overcast,350,2013-12-06 22:15:00
4:35 PM,19.4,8.6,63,30.40,10.0,North,11.5,-,N/A,,Overcast,360,2013-12-06 22:35:00
4:55 PM,19.4,8.6,63,30.41,10.0,North,13.8,-,N/A,,Overcast,350,2013-12-06 22:55:00
5:15 PM,19.4,8.6,63,30.42,10.0,North,12.7,-,N/A,,Overcast,360,2013-12-06 23:15:00
5:35 PM,19.4,6.8,58,30.43,10.0,North,10.4,16.1,N/A,,Overcast,10,2013-12-06 23:35:00
5:55 PM,19.4,6.8,58,30.44,10.0,North,13.8,17.3,N/A,,Overcast,10,2013-12-06 23:55:00
6:15 PM,19.4,6.8,58,30.44,10.0,North,10.4,-,N/A,,Overcast,360,2013-12-07 00:15:00
6:35 PM,17.6,5.0,58,30.45,10.0,North,13.8,-,N/A,,Overcast,10,2013-12-07 00:35:00
6:55 PM,17.6,5.0,58,30.46,10.0,NNE,11.5,-,N/A,,Overcast,20,2013-12-07 00:55:00
7:15 PM,17.6,5.0,58,30.47,10.0,North,12.7,18.4,N/A,,Overcast,360,2013-12-07 01:15:00
7:35 PM,17.6,3.2,53,30.47,10.0,North,10.4,-,N/A,,Overcast,10,2013-12-07 01:35:00
7:55 PM,17.6,3.2,53,30.48,10.0,North,10.4,-,N/A,,Overcast,10,2013-12-07 01:55:00
8:15 PM,17.6,3.2,53,30.48,10.0,NNE,10.4,-,N/A,,Overcast,20,2013-12-07 02:15:00
8:35 PM,17.6,3.2,53,30.48,10.0,NNE,10.4,-,N/A,,Overcast,20,2013-12-07 02:35:00
8:55 PM,17.6,3.2,53,30.50,10.0,NNE,8.1,-,N/A,,Overcast,30,2013-12-07 02:55:00
9:15 PM,17.6,3.2,53,30.51,10.0,NNE,10.4,-,N/A,,Overcast,20,2013-12-07 03:15:00
9:35 PM,17.6,3.2,53,30.51,10.0,North,9.2,-,N/A,,Overcast,10,2013-12-07 03:35:00
9:55 PM,17.6,3.2,53,30.52,10.0,NNE,10.4,-,N/A,,Overcast,20,2013-12-07 03:55:00
10:15 PM,17.6,3.2,53,30.52,10.0,North,10.4,-,N/A,,Overcast,10,2013-12-07 04:15:00
10:35 PM,17.6,3.2,53,30.53,10.0,North,11.5,-,N/A,,Overcast,10,2013-12-07 04:35:00
10:55 PM,17.6,1.4,49,30.53,10.0,NNE,6.9,-,N/A,,Overcast,20,2013-12-07 04:55:00
11:15 PM,15.8,1.4,53,30.53,10.0,NNE,8.1,-,N/A,,Overcast,30,2013-12-07 05:15:00
11:35 PM,15.8,1.4,53,30.52,10.0,North,9.2,-,N/A,,Overcast,10,2013-12-07 05:35:00
11:55 PM,14.0,-0.4,53,30.53,10.0,North,6.9,-,N/A,,Scattered Clouds,10,2013-12-07 05:55:00